Skip Navigation Linkswww.weather.gov 
NOAA logo - Click to go to the NOAA homepage National Weather Service   NWS logo - Click to go to the NWS homepage    
Western Region Headquarters
navigation bar decoration      
Regional Divisions
 
 
 
 
 
USA.gov is the U.S. government's official web portal to all federal, state and local government web resources and services.
spacer
Printer Friendly  |   Go Back  |  Version: Current   1   2   3   4   5   6   7   8   9   10   |  Font:  A A A  |  
This version is NOT current and may no longer be valid!

HOURLY WEATHER ROUNDUP
 
 ASUS45 KREV 280810
RWRNV
NEVADA REGIONAL WEATHER ROUNDUP
NATIONAL WEATHER SERVICE RENO NV
1200 AM PST SAT FEB 28 2015

NOTE: "FAIR" INDICATES FEW OR NO CLOUDS BELOW 12,000 FEET WITH NO
SIGNIFICANT WEATHER AND/OR OBSTRUCTIONS TO VISIBILITY.

NVZ001-003-004-280900-
WESTERN NEVADA

CITY SKY/WX TMP DP RH WIND PRES REMARKS
RENO CLOUDY 37 32 82 CALM 29.63F
CARSON CITY LGT SNOW 34 32 93 SW7 29.64S
MINDEN CLOUDY 36 32 87 NE7 29.64
SLIDE MTN N/A 19 18 93 W10 N/A
FALLON MOCLDY 36 32 85 SW5 29.63F
LOVELOCK CLOUDY 38 34 85 CALM 29.62F
HAWTHORNE MOCLDY 39 34 81 CALM 29.64F
$$

NVZ002-CAZ072-073-280900-
NORTHERN AND CENTRAL SIERRA

CITY SKY/WX TMP DP RH WIND PRES REMARKS
S. LAKE TAHOE CLOUDY 32 27 81 CALM 29.61F
TRUCKEE LGT SNOW 30 28 93 SE3 29.63S VSB 3/4
SQUAW VLY 8000 N/A 25 25 100 SW8 N/A
SUSANVILLE CLOUDY 36 34 93 CALM 29.65F
BLUE CANYON HVY SNOW 31 29 92 NE5 29.66S VSB 1/4
MAMMOTH LAKES MOCLDY 30 14 51 E5 29.63S
BRIDGEPORT FAIR 27 15 61 W7 29.59F
$$

NVZ030-031-036-280900-
NORTHERN NEVADA

CITY SKY/WX TMP DP RH WIND PRES REMARKS
ELKO LGT SNOW 33 32 96 CALM 29.60S FOG
WINNEMUCCA FOG 30 30 100 CALM 29.63S VSB 1/2
WENDOVER CLOUDY 37 25 60 N6G20 29.66S
$$

NVZ035-037-280900-
CENTRAL NEVADA

CITY SKY/WX TMP DP RH WIND PRES REMARKS
ELY LGT SNOW 30 29 96 CALM 29.61S VSB 1
EUREKA N/A 30 28 92 S3 29.60F
$$

NVZ013-014-280900-
SOUTH CENTRAL NEVADA

CITY SKY/WX TMP DP RH WIND PRES REMARKS
TONOPAH CLOUDY 33 29 85 N3 29.62F
$$

NVZ017-020-022-280900-
SOUTHERN NEVADA

CITY SKY/WX TMP DP RH WIND PRES REMARKS
LAS VEGAS PTCLDY 56 36 47 S15G28 29.51S
N. LAS VEGAS CLEAR 56 33 42 S14 29.52F
NELLIS AFB CLEAR 56 38 50 S14 29.53F
HENDERSON CLEAR 53 37 54 S18 29.57S
MERCURY MOCLDY 48 34 58 NE17 29.57R
$$


Webmaster
US Dept of Commerce
National Oceanic and Atmospheric Administration
National Weather Service
Western Region Headquarters
125 South State Street
Salt Lake City, UT 84138-1102

Disclaimer
Information Quality
Credits
Glossary
Organization
Privacy Policy
Freedom of Information Act
About Us
Career Opportunities